This demonstration page uses our WeatherBlox Daily Observations layout. Learn more.

39.29038, -76.61219

Hourly Observations for July 23, 2019

Temp ( °F °C ) Dew Point ( °F °C ) Humidity (%) Winds ( mph kmh ) Pressure ( in mb ) Visibility ( mi km ) Precip ( " mm )
12:54 am 00:54 undefined 78 25.6 68 20 71 71 undefined N/A 29.77 1008 N/A 0 0
1:54 am 01:54 undefined 77 25 70 21.1 79 79 undefined N/A 29.74 1007 N/A 0 0
2:54 am 02:54 undefined 69 20.6 67 19.4 93 93 undefined N/A 29.75 1008 N/A 0.43 10.922
3:54 am 03:54 undefined 70 21.1 66 18.9 87 87 undefined N/A 29.76 1008 N/A 0.03 0.762
4:54 am 04:54 undefined 70 21.1 65 18.3 84 84 undefined N/A 29.79 1009 N/A 0 0
5:54 am 05:54 undefined 70 21.1 65 18.3 84 84 undefined N/A 29.83 1010 N/A 0 0
6:54 am 06:54 undefined 70 21.1 66 18.9 87 87 undefined N/A 29.85 1011 N/A 0 0
7:54 am 07:54 undefined 71 21.7 66 18.9 84 84 undefined N/A 29.88 1012 N/A 0 0
8:54 am 08:54 undefined 71 21.7 64 17.8 79 79 undefined N/A 29.9 1012 N/A 0 0
9:54 am 09:54 undefined 71 21.7 65 18.3 81 81 undefined N/A 29.88 1012 N/A 0.01 0.254
10:54 am 10:54 undefined 74 23.3 64 17.8 71 71 undefined N/A 29.89 1012 N/A 0 0
11:54 am 11:54 undefined 76 24.4 64 17.8 67 67 undefined N/A 29.9 1013 N/A 0 0
12:54 pm 12:54 undefined 75 23.9 64 17.8 69 69 undefined N/A 29.88 1012 N/A 0 0
1:54 pm 13:54 undefined 77 25 63 17.2 62 62 undefined N/A 29.89 1012 N/A 0 0
2:54 pm 14:54 undefined 77 25 63 17.2 62 62 undefined N/A 29.88 1012 N/A 0 0
3:54 pm 15:54 undefined 77 25 63 17.2 62 62 undefined N/A 29.86 1011 N/A 0 0
4:54 pm 16:54 undefined 77 25 63 17.2 62 62 undefined N/A 29.87 1012 N/A 0 0
5:54 pm 17:54 undefined 77 25 64 17.8 64 64 undefined N/A 29.85 1011 N/A 0 0
6:54 pm 18:54 undefined 77 25 64 17.8 64 64 undefined N/A 29.87 1011 N/A 0 0
7:54 pm 19:54 undefined 77 25 64 17.8 64 64 undefined N/A 29.87 1011 N/A 0 0
8:54 pm 20:54 undefined 76 24.4 65 18.3 69 69 undefined N/A 29.87 1012 N/A 0 0
9:54 pm 21:54 undefined 75 23.9 64 17.8 69 69 undefined N/A 29.88 1012 N/A 0 0
10:54 pm 22:54 undefined 74 23.3 64 17.8 71 71 undefined N/A 29.88 1012 N/A 0 0
11:54 pm 23:54 undefined 74 23.3 65 18.3 74 74 undefined N/A 29.89 1012 N/A 0 0

Powered by AerisWeather